Location: Pcim
(49.7500°N, 19.9670°E)
Time: 19:23:09
(UTC+02:00)

Oscar 11 - Pass Details

Date: 19 April 2024
Orbit: 602 x 615 km, 97.7° (Epoch: 26 May)

Event Time Altitude Azimuth Distance (km) Brightness Sun altitude
Rises 03:55:21 0° 22° (NNE) 2,898 11.6 -15.4°
Reaches altitude 10° 03:57:47 10° 33° (NNE) 1,986 10.9 -15.1°
Maximum altitude 04:01:35 30° 95° (E) 1,108 8.8 -14.6°
Drops below altitude 10° 04:05:22 10° 157° (SSE) 1,966 9.5 -14.2°
Sets 04:07:45 0° 168° (SSE) 2,862 10.2 -13.8°
